Location: Tel Aviv
(32.0670°N, 34.7670°E)
Time: 21:27:02
(UTC+03:00)

Vanguard 1 Rocket - Visible Passes

Search period start: 11 April 2026 00:00
Search period end: 21 April 2026 00:00
Orbit: 654 x 4213 km, 34.3° (Epoch: 11 April)

Date Brightness Start Highest point End Pass type
(mag) Time Alt. Az. Time Alt. Az. Time Alt. Az.
11 Apr 9.9 00:19:23 10° WSW 00:49:18 66° E 01:00:32 10° ENE visible
11 Apr 9.3 03:06:16 35° W 03:15:58 83° N 03:26:11 10° E visible
11 Apr 8.6 05:29:59 10° WNW 05:43:19 61° SSW 05:50:10 10° SE visible
11 Apr 10.7 20:35:27 10° SSW 20:57:24 40° SE 21:10:30 25° E visible
11 Apr 10.1 23:02:50 10° SW 23:38:45 43° E 23:47:22 10° ENE visible
12 Apr 9.6 01:37:04 10° W 02:01:07 83° N 02:13:51 10° E visible
12 Apr 8.9 04:13:02 10° WNW 04:30:22 83° SSW 04:38:46 10° ESE visible
12 Apr 11.1 19:24:16 10° S 19:42:02 27° SE 20:00:29 10° E visible
12 Apr 10.3 21:47:45 10° SW 22:12:53 62° SSE 22:33:28 10° ENE visible
13 Apr 9.9 00:19:15 10° WSW 00:45:25 89° NNW 01:01:05 10° ENE visible
13 Apr 9.3 02:55:17 10° W 03:16:25 86° N 03:26:53 10° E visible
13 Apr 8.8 05:30:07 10° WNW 05:43:29 50° SW 05:50:30 10° SE visible
13 Apr 10.6 20:34:12 10° SSW 20:56:49 47° SE 21:18:31 10° ENE visible
13 Apr 10.1 23:02:29 10° WSW 23:29:06 82° SSE 23:47:49 10° ENE visible
14 Apr 9.7 01:37:07 10° W 02:01:29 83° N 02:14:30 10° E visible
14 Apr 8.9 04:13:01 10° WNW 04:30:40 74° SSW 04:39:20 10° ESE visible
14 Apr 10.9 19:22:22 10° S 19:41:21 33° SE 20:01:52 10° E visible
14 Apr 10.3 21:47:09 10° SW 22:12:32 69° SSE 22:33:53 10° ENE visible
15 Apr 10.0 00:19:14 10° W 00:45:37 86° N 01:01:40 10° E visible
15 Apr 9.3 02:55:17 10° WNW 03:16:48 90° S 03:27:32 10° ESE visible
15 Apr 9.1 05:30:19 10° WNW 05:43:28 41° SW 05:50:39 10° SSE visible
15 Apr 10.6 20:33:17 10° SW 20:56:12 55° SE 21:19:00 10° ENE visible
15 Apr 10.2 23:02:20 10° WSW 23:29:03 87° SSE 23:48:17 10° ENE visible
16 Apr 9.7 01:37:11 10° W 02:01:50 84° N 02:15:09 10° E visible
16 Apr 9.0 04:12:59 10° WNW 04:30:51 65° SSW 04:39:46 10° SE visible
16 Apr 10.8 19:21:00 10° SSW 19:40:35 40° SE 20:02:44 10° ENE visible
16 Apr 10.4 21:46:47 10° SW 22:12:13 76° SSE 22:34:15 10° ENE visible
17 Apr 10.0 00:19:19 10° W 00:45:51 84° N 01:02:14 10° E visible
17 Apr 9.4 02:55:14 10° WNW 03:17:05 83° SSW 03:28:06 10° ESE visible
17 Apr 9.4 05:30:38 10° WNW 05:43:19 34° SW 05:50:35 10° SSE visible
17 Apr 10.5 20:32:40 10° SW 20:55:38 62° SE 21:19:21 10° ENE visible
17 Apr 10.3 23:02:20 10° WSW 23:29:04 89° NNW 23:48:44 10° E visible
18 Apr 9.7 01:37:14 10° W 02:02:09 87° N 02:15:47 10° E visible
18 Apr 9.2 04:12:57 10° WNW 04:30:52 56° SW 04:40:04 10° SE visible
18 Apr 10.7 19:20:01 10° SSW 19:39:49 47° SE 20:03:17 10° ENE visible
18 Apr 10.4 21:46:36 10° WSW 22:11:57 82° SSE 22:34:35 10° ENE visible
19 Apr 10.1 00:19:27 10° W 00:46:06 84° N 01:02:50 10° E visible
19 Apr 9.4 02:55:09 10° WNW 03:17:16 76° SSW 03:28:35 10° ESE visible
19 Apr 9.6 05:31:12 10° W 05:42:59 27° SW 05:50:15 10° S visible
19 Apr 10.5 20:32:17 10° SW 20:55:07 69° SSE 21:19:37 10° ENE visible
19 Apr 10.3 23:02:26 10° W 23:29:09 86° N 23:49:13 10° E visible
20 Apr 9.8 01:37:14 10° WNW 02:02:24 89° SSW 02:16:22 10° ESE visible
20 Apr 9.4 04:12:58 10° WNW 04:30:41 47° SW 04:40:11 10° SSE visible
20 Apr 10.6 19:19:22 10° SSW 19:39:05 54° SE 20:03:37 10° ENE visible
20 Apr 10.4 21:46:38 10° WSW 22:11:48 87° SSE 22:34:55 10° ENE visible
